This demonstration page uses our WeatherBlox Daily Observations layout. Learn more.

Left ArrowRight Arrow

39.08367, -84.50855

Hourly Observations for May 15, 2022

Temp ( °F °C ) Dew Point ( °F °C ) Humidity (%) Winds ( mph kmh ) Pressure ( in mb ) Visibility ( mi km ) Precip ( " mm )
12:04 am 00:04 Clear with Fog 62 16.7 62 16.7 100 100 S 3 6 29.93 1014 1 1 0.00 0.00
12:17 am 00:17 Clear with Mist and Fog 60 15.6 60 15.6 100 100 SSW 7 11 29.94 1014 2 3 0.00 0.00
12:30 am 00:30 Clear with Mist and Fog 61 16.1 61 16.1 100 100 WSW 3 6 29.94 1014 3 5 0.00 0.00
12:53 am 00:53 Clear with Mist and Fog 61 16.1 61 16.1 100 100 S 3 6 29.93 1014 5 8 0.00 0.00
1:53 am 01:53 Clear with Mist and Fog 60 15.6 60 15.6 100 100 SW 5 7 29.93 1013 3 5 0.00 0.00
2:01 am 02:01 Clear with Mist and Fog 59 15 59 15 100 100 S 5 7 29.94 1014 2 2 0.00 0.00
2:14 am 02:14 Clear with Mist and Fog 60 15.6 60 15.6 100 100 S 3 6 29.93 1013 3 5 0.00 0.00
2:44 am 02:44 Clear with Mist and Fog 60 15.6 60 15.6 100 100 SW 5 7 29.93 1013 3 4 0.00 0.00
2:53 am 02:53 Clear with Mist and Fog 60 15.6 60 15.6 100 100 SSW 3 6 29.92 1013 3 4 0.00 0.00
3:09 am 03:09 Clear with Mist and Fog 60 15.6 60 15.6 100 100 Calm 29.93 1013 2 2 0.00 0.00
3:16 am 03:16 Mostly Cloudy with Fog 57 13.9 57 13.9 100 100 Calm 29.93 1014 1 1 0.00 0.00
3:26 am 03:26 Clear with Fog 58 14.4 58 14.4 100 100 Calm 29.93 1014 0 0 0.00 0.00
3:38 am 03:38 Mostly Cloudy with Fog 59 15 59 15 100 100 Calm 29.93 1013 0 0 0.00 0.00
3:44 am 03:44 Mostly Cloudy with Mist and Fog 60 15.6 60 15.6 100 100 Calm 29.93 1013 1 2 0.00 0.00
3:47 am 03:47 Clear with Mist and Fog 59 15 59 15 100 100 Calm 29.93 1013 1 1 0.00 0.00
3:51 am 03:51 Mostly Cloudy with Fog 57 14 57 14 100 100 Calm 29.93 1014 0 0 0.00 0.00
3:53 am 03:53 Mostly Cloudy with Fog 57 13.9 57 13.9 100 100 Calm 29.91 1013 0 0 0.00 0.00
4:11 am 04:11 Mostly Cloudy with Fog 58 14.4 58 14.4 100 100 Calm 29.93 1014 0 0 0.00 0.00
4:27 am 04:27 Mostly Cloudy with Fog 59 15 59 15 100 100 Calm 29.92 1013 0 0 0.00 0.00
4:34 am 04:34 Mostly Cloudy with Fog 58 14.4 58 14.4 100 100 Calm 29.92 1013 N/A 0.00 0.00
4:53 am 04:53 Mostly Cloudy with Fog 59 15 59 15 100 100 Calm 29.91 1013 N/A 0.00 0.00
5:32 am 05:32 Mostly Cloudy with Fog 59 15 59 15 100 100 Calm 29.93 1013 0 0 0.00 0.00
5:39 am 05:39 Mostly Cloudy with Fog 59 15 59 15 100 100 Calm 29.93 1013 N/A 0.00 0.00
5:50 am 05:50 Mostly Cloudy with Fog 59 15 59 15 100 100 Calm 29.93 1013 0 0 0.00 0.00
5:53 am 05:53 Mostly Cloudy with Fog 59 15 59 15 100 100 Calm 29.92 1013 0 0 0.00 0.00
6:31 am 06:31 Mostly Cloudy with Fog 60 15.6 60 15.6 100 100 Calm 29.95 1014 N/A 0.00 0.00
6:53 am 06:53 Mostly Cloudy with Fog 59 15 59 15 100 100 Calm 29.94 1014 N/A 0.00 0.00
7:53 am 07:53 Mostly Cloudy with Fog 60 15.6 60 15.6 100 100 Calm 29.96 1014 N/A 0.00 0.00
8:32 am 08:32 Mostly Cloudy with Fog 61 16.1 61 16.1 100 100 Calm 29.96 1014 0 0 0.00 0.00
8:53 am 08:53 Mostly Cloudy with Fog 61 16.1 61 16.1 100 100 Calm 29.97 1015 N/A 0.00 0.00
9:03 am 09:03 Mostly Cloudy with Fog 62 16.7 62 16.7 100 100 Calm 29.97 1015 0 0 0.00 0.00
9:41 am 09:41 Mostly Cloudy with Mist and Fog 63 17.2 63 17.2 100 100 Calm 29.97 1015 1 2 0.00 0.00
9:48 am 09:48 Mostly Cloudy with Mist and Fog 64 18 64 18 100 100 Calm 29.97 1015 3 5 0.00 0.00
9:53 am 09:53 Partly Cloudy with Mist and Fog 66 18.9 66 18.9 100 100 Calm 29.97 1015 5 8 0.00 0.00
10:53 am 10:53 Sunny 72 22.2 66 18.9 82 82 Calm 29.97 1015 8 13 0.00 0.00
11:53 am 11:53 Sunny 76 24.4 67 19.4 74 74 SE 6 9 29.95 1014 10 16 0.00 0.00
12:53 pm 12:53 Sunny 79 26.1 63 17.2 58 58 SW 3 6 29.91 1013 10 16 0.00 0.00
1:53 pm 13:53 Sunny 81 27.2 64 17.8 57 57 Calm 29.90 1013 10 16 0.00 0.00
2:53 pm 14:53 Sunny 83 28.3 59 15 44 44 WSW 6 9 29.88 1012 10 16 0.00 0.00
3:53 pm 15:53 Sunny 84 28.9 58 14.4 41 41 VRB 3 6 29.86 1011 10 16 0.00 0.00
4:53 pm 16:53 Sunny 84 28.9 57 13.9 40 40 S 7 11 29.84 1010 10 16 0.00 0.00
5:53 pm 17:53 Sunny 83 28.3 58 14.4 43 43 S 6 9 29.80 1009 10 16 0.00 0.00
6:53 pm 18:53 Sunny 78 25.6 62 16.7 58 58 SSE 5 7 29.78 1009 10 16 0.00 0.00
7:53 pm 19:53 Sunny 74 23.3 66 18.9 76 76 S 5 7 29.79 1009 10 16 0.00 0.00
8:53 pm 20:53 Clear 68 20 63 17.2 84 84 Calm 29.79 1009 10 16 0.00 0.00
9:53 pm 21:53 Clear 67 19.4 62 16.7 84 84 Calm 29.80 1009 10 16 0.00 0.00
10:53 pm 22:53 Clear 66 18.9 62 16.7 87 87 WSW 5 7 29.78 1008 10 16 0.00 0.00
11:53 pm 23:53 Clear 65 18.3 62 16.7 90 90 S 5 7 29.77 1008 10 16 0.00 0.00

Powered by AerisWeather